• In Österreich
  • Länderverzeichnis
  • Für 7 Tage
  • Wassertemperatur
  • Satellitenkarten
  • Wetterkarte
  • News
  • Widgets
  • user-avatar
    Anmelden

    Stündliche Wetter Dobritsch

    Heute, 18 August, Samstag

    Zeit Temperatur Niederschläge Wind Luftdruck Luftfeuchtigkeit
    00:00 +24°C° 0 mm 3 m/S 737 mmHg 54%
    01:00 +22°C° 0 mm 3 m/S 737 mmHg 55%
    02:00 +21°C° 0 mm 3 m/S 737 mmHg 62%
    03:00 +20°C° 0 mm 4 m/S 737 mmHg 67%
    04:00 +20°C° 0 mm 4 m/S 737 mmHg 71%
    05:00 +20°C° 0 mm 4 m/S 737 mmHg 75%
    06:00 +21°C° 0 mm 5 m/S 737 mmHg 70%
    07:00 +23°C° 0 mm 5 m/S 738 mmHg 64%
    08:00 +26°C° 0 mm 5 m/S 738 mmHg 58%
    09:00 +28°C° 0 mm 6 m/S 738 mmHg 51%
    10:00 +30°C° 0 mm 6 m/S 738 mmHg 43%
    11:00 +33°C° 0 mm 6 m/S 738 mmHg 36%
    12:00 +33°C° 0 mm 6 m/S 738 mmHg 34%
    13:00 +34°C° 0 mm 6 m/S 738 mmHg 32%
    14:00 +34°C° 0 mm 7 m/S 738 mmHg 31%
    15:00 +34°C° 0 mm 6 m/S 738 mmHg 31%
    16:00 +33°C° 0 mm 6 m/S 738 mmHg 32%
    17:00 +33°C° 0 mm 5 m/S 739 mmHg 33%
    18:00 +30°C° 0 mm 4 m/S 739 mmHg 39%
    19:00 +27°C° 0 mm 3 m/S 739 mmHg 46%
    20:00 +25°C° 0 mm 2 m/S 739 mmHg 52%
    21:00 +25°C° 0 mm 2 m/S 739 mmHg 53%
    22:00 +24°C° 0 mm 2 m/S 739 mmHg 55%
    23:00 +24°C° 0 mm 2 m/S 739 mmHg 56%

    Morgen, 19 August, Sonntag

    Zeit Temperatur Niederschläge Wind Luftdruck Luftfeuchtigkeit
    00:00 +23°C° 0 mm 2 m/S 739 mmHg 55%
    01:00 +23°C° 0 mm 2 m/S 739 mmHg 54%
    02:00 +23°C° 0 mm 2 m/S 739 mmHg 53%
    03:00 +22°C° 0 mm 3 m/S 739 mmHg 54%
    04:00 +21°C° 0 mm 3 m/S 739 mmHg 55%
    05:00 +21°C° 0 mm 3 m/S 739 mmHg 55%
    06:00 +24°C° 0 mm 3 m/S 739 mmHg 52%
    07:00 +25°C° 0 mm 3 m/S 740 mmHg 49%
    08:00 +27°C° 0 mm 3 m/S 740 mmHg 46%
    09:00 +29°C° 0 mm 4 m/S 740 mmHg 41%
    10:00 +32°C° 0 mm 4 m/S 740 mmHg 37%
    11:00 +34°C° 0 mm 4 m/S 740 mmHg 32%
    12:00 +34°C° 0 mm 5 m/S 740 mmHg 33%
    13:00 +34°C° 0 mm 5 m/S 740 mmHg 34%
    14:00 +34°C° 0 mm 5 m/S 740 mmHg 35%
    15:00 +33°C° 0 mm 5 m/S 740 mmHg 36%
    16:00 +33°C° 0 mm 5 m/S 739 mmHg 37%
    17:00 +32°C° 0 mm 5 m/S 739 mmHg 39%
    18:00 +29°C° 0 mm 5 m/S 739 mmHg 48%
    19:00 +27°C° 0 mm 4 m/S 739 mmHg 56%
    20:00 +24°C° 0 mm 3 m/S 739 mmHg 65%
    21:00 +24°C° 0 mm 3 m/S 739 mmHg 72%
    22:00 +22°C° 0 mm 3 m/S 739 mmHg 79%
    23:00 +21°C° 0 mm 2 m/S 739 mmHg 85%

    übermorgen, 20 August, Montag

    Zeit Temperatur Niederschläge Wind Luftdruck Luftfeuchtigkeit
    00:00 +21°C° 0 mm 2 m/S 739 mmHg 86%
    01:00 +20°C° 0 mm 2 m/S 739 mmHg 86%
    02:00 +20°C° 0 mm 2 m/S 739 mmHg 87%
    03:00 +20°C° 0 mm 2 m/S 739 mmHg 87%
    04:00 +19°C° 0 mm 3 m/S 739 mmHg 88%
    05:00 +19°C° 0 mm 3 m/S 739 mmHg 89%
    06:00 +21°C° 0 mm 4 m/S 739 mmHg 79%
    07:00 +23°C° 0 mm 4 m/S 739 mmHg 68%
    08:00 +25°C° 0 mm 5 m/S 740 mmHg 57%
    09:00 +27°C° 0 mm 5 m/S 740 mmHg 49%
    10:00 +28°C° 0 mm 5 m/S 740 mmHg 41%
    11:00 +30°C° 0 mm 6 m/S 740 mmHg 33%
    12:00 +30°C° 0 mm 6 m/S 740 mmHg 32%
    13:00 +30°C° 0 mm 6 m/S 740 mmHg 31%
    14:00 +32°C° 0 mm 6 m/S 740 mmHg 30%
    15:00 +30°C° 0 mm 6 m/S 739 mmHg 32%
    16:00 +29°C° 0 mm 6 m/S 739 mmHg 34%
    17:00 +28°C° 0 mm 5 m/S 739 mmHg 37%
    18:00 +26°C° 0 mm 5 m/S 739 mmHg 44%
    19:00 +23°C° 0 mm 4 m/S 739 mmHg 52%
    20:00 +21°C° 0 mm 3 m/S 739 mmHg 59%
    21:00 +20°C° 0 mm 3 m/S 739 mmHg 63%
    22:00 +19°C° 0 mm 2 m/S 739 mmHg 68%
    23:00 +19°C° 0 mm 2 m/S 739 mmHg 72%

    21 August, Dienstag

    Zeit Temperatur Niederschläge Wind Luftdruck Luftfeuchtigkeit
    00:00 +18°C° 0 mm 2 m/S 739 mmHg 73%
    01:00 +18°C° 0 mm 2 m/S 739 mmHg 75%
    02:00 +19°C° 0 mm 1 m/S 739 mmHg 76%
    03:00 +17°C° 0 mm 2 m/S 739 mmHg 77%
    04:00 +17°C° 0 mm 2 m/S 739 mmHg 78%
    05:00 +17°C° 0 mm 2 m/S 739 mmHg 78%
    06:00 +19°C° 0 mm 3 m/S 739 mmHg 71%
    07:00 +20°C° 0 mm 3 m/S 740 mmHg 63%
    08:00 +22°C° 0 mm 3 m/S 740 mmHg 56%
    09:00 +25°C° 0 mm 3 m/S 740 mmHg 49%
    10:00 +27°C° 0 mm 4 m/S 740 mmHg 42%
    11:00 +29°C° 0 mm 4 m/S 740 mmHg 35%
    12:00 +29°C° 0 mm 4 m/S 740 mmHg 34%
    13:00 +30°C° 0 mm 4 m/S 740 mmHg 32%
    14:00 +32°C° 0 mm 5 m/S 740 mmHg 31%
    15:00 +30°C° 0 mm 4 m/S 740 mmHg 33%
    16:00 +29°C° 0 mm 4 m/S 739 mmHg 36%
    17:00 +29°C° 0 mm 4 m/S 739 mmHg 38%
    18:00 +27°C° 0 mm 4 m/S 739 mmHg 47%
    19:00 +24°C° 0 mm 3 m/S 739 mmHg 56%
    20:00 +21°C° 0 mm 2 m/S 739 mmHg 65%
    21:00 +20°C° 0 mm 2 m/S 740 mmHg 70%
    22:00 +19°C° 0 mm 2 m/S 740 mmHg 74%
    23:00 +20°C° 0 mm 1 m/S 740 mmHg 79%

    22 August, Mittwoch

    Zeit Temperatur Niederschläge Wind Luftdruck Luftfeuchtigkeit
    00:00 +19°C° 0 mm 1 m/S 740 mmHg 78%
    01:00 +19°C° 0 mm 1 m/S 740 mmHg 78%
    02:00 +19°C° 0 mm 1 m/S 740 mmHg 77%
    03:00 +18°C° 0 mm 1 m/S 740 mmHg 76%
    04:00 +17°C° 0 mm 2 m/S 740 mmHg 74%
    05:00 +17°C° 0 mm 2 m/S 740 mmHg 72%
    06:00 +19°C° 0 mm 2 m/S 740 mmHg 64%
    07:00 +21°C° 0 mm 2 m/S 740 mmHg 57%
    08:00 +24°C° 0 mm 2 m/S 741 mmHg 50%
    09:00 +26°C° 0 mm 3 m/S 741 mmHg 42%
    10:00 +28°C° 0 mm 3 m/S 741 mmHg 34%
    11:00 +30°C° 0 mm 4 m/S 741 mmHg 26%
    12:00 +32°C° 0 mm 4 m/S 741 mmHg 24%
    13:00 +33°C° 0 mm 4 m/S 741 mmHg 23%
    14:00 +34°C° 0 mm 4 m/S 740 mmHg 22%
    15:00 +33°C° 0 mm 4 m/S 740 mmHg 23%
    16:00 +33°C° 0 mm 4 m/S 740 mmHg 24%
    17:00 +32°C° 0 mm 4 m/S 740 mmHg 26%
    18:00 +29°C° 0 mm 3 m/S 740 mmHg 31%
    19:00 +26°C° 0 mm 3 m/S 740 mmHg 36%
    20:00 +24°C° 0 mm 2 m/S 740 mmHg 42%
    21:00 +23°C° 0 mm 2 m/S 740 mmHg 42%
    22:00 +23°C° 0 mm 1 m/S 740 mmHg 43%
    23:00 +22°C° 0 mm 1 m/S 740 mmHg 43%

    23 August, Donnerstag

    Zeit Temperatur Niederschläge Wind Luftdruck Luftfeuchtigkeit
    00:00 +21°C° 0 mm 2 m/S 740 mmHg 43%
    01:00 +21°C° 0 mm 2 m/S 740 mmHg 42%
    02:00 +20°C° 0 mm 2 m/S 740 mmHg 42%
    03:00 +20°C° 0 mm 3 m/S 740 mmHg 44%
    04:00 +20°C° 0 mm 3 m/S 740 mmHg 46%
    05:00 +19°C° 0 mm 3 m/S 740 mmHg 48%
    06:00 +21°C° 0 mm 4 m/S 740 mmHg 51%
    07:00 +23°C° 0 mm 4 m/S 741 mmHg 54%
    08:00 +26°C° 0 mm 5 m/S 741 mmHg 58%
    09:00 +27°C° 0 mm 5 m/S 741 mmHg 54%
    10:00 +29°C° 0 mm 6 m/S 741 mmHg 50%
    11:00 +32°C° 0 mm 6 m/S 741 mmHg 47%
    12:00 +32°C° 0 mm 7 m/S 741 mmHg 45%
    13:00 +32°C° 0 mm 7 m/S 740 mmHg 44%
    14:00 +32°C° 0 mm 7 m/S 740 mmHg 42%
    15:00 +32°C° 0 mm 7 m/S 740 mmHg 44%
    16:00 +30°C° 0 mm 6 m/S 740 mmHg 46%
    17:00 +29°C° 0 mm 6 m/S 740 mmHg 48%
    18:00 +27°C° 0 mm 5 m/S 740 mmHg 55%
    19:00 +25°C° 0 mm 4 m/S 740 mmHg 63%
    20:00 +22°C° 0 mm 3 m/S 740 mmHg 70%
    21:00 +22°C° 0 mm 3 m/S 740 mmHg 73%
    22:00 +21°C° 0 mm 3 m/S 739 mmHg 76%
    23:00 +20°C° 0 mm 3 m/S 739 mmHg 78%
    Mehr zeigen